Location: Oberkirch
(48.5323°N, 8.0787°E)
Time: 15:48:36
(UTC+00:00)

S-56A Canister/Altair - Pass Details

Date: 16 February 2026
Orbit: 633 x 2484 km, 38.9° (Epoch: 7 March)

Event Time Altitude Azimuth Distance (km) Brightness Sun altitude
Exits shadow 04:01:01 34° 225° (SW) 2,569 9.7 -25.8°
Maximum altitude 04:03:34 38° 198° (SSW) 2,571 9.9 -25.4°
Drops below altitude 10° 04:15:10 10° 138° (SE) 4,850 12.0 -23.5°
Sets 04:19:43 0° 131° (SE) 6,016 12.7 -22.8°
